EHI
0 0 0 0 0 0 0 0 0 0 0 0 0 0 0 0 0 0 0 0 0 0 0 0 0 0 0 0 0 0 0 0 0 0 0 0 0 0 0 0 0 0 0
0 0 0 0 0 0 0 0 0 0 0 0 0 0 0 0 0 0 0 0 0 0 0 0 0 0 0 0 0 0 0 0 0 0 0 0 0 0 0 0 0 0 0
0 0 0 0 0 0 0 0 0 0 0 0 0 0 0 0 0 0 0 0 0 0 0 0 0 0 0 0 0 0 0 0 0 0 0 0 0 0 0 0 0 0 0
0 0 0 0 0 0 0 0 0 0 0 0 0 0 0 0 0 0 0 0 0 0 0 0 0 0 0 0 0 0 0 0 0 0 0 0 0 0 0 0 0 0 0
0 0 0 0 0 0 0 0 0 0 0 0 0 0 0 0 0 0 0 0 0 0 0 0 0 0 0 0 0 0 0 0 0 0 0 0 0 0 0 0 0 0 0
0 0 1 1 0 0 0 0 0 0 0 0 0 0 0 0 0 0 0 0 0 0 0 0 0 0 0 0 0 0 0 0 0 0 0 0 0 0 0 0 0 0 0
0 1 2 2 1 0 0 0 0 0 0 0 0 0 0 0 0 0 0 0 0 0 0 0 0 0 0 0 0 0 0 0 0 0 0 0 0 0 0 0 0 0 0
0 1 2 2 1 0 0 0 0 0 0 0 0 0 0 0 0 0 0 0 0 0 0 0 0 0 0 0 0 0 0 0 0 0 0 0 0 0 0 0 0 0 0
0 1 2 1 1 0 0 0 0 0 0 0 0 0 0 0 0 0 0 0 0 0 0 0 0 0 0 0 0 0 0 0 0 0 0 0 0 0 0 0 0 0 0
0 1 1 1 0 0 0 0 0 0 0 0 0 0 0 0 0 0 0 0 0 0 0 0 0 0 0 0 0 0 0 0 0 0 0 0 0 0 0 0 0 0 0
0 0 0 0 0 0 0 0 0 0 0 0 0 0 0 0 0 0 0 0 0 0 0 0 0 0 0 0 0 0 0 0 0 0 0 0 0 0 0 0 0 0 0
0 0 0 0 0 0 0 0 0 0 0 0 0 0 0 0 0 0 0 0 0 0 0 0 0 0 0 0 0 0 0 0 0 0 0 0 0 0 0 0 0 0 0
0 0 0 0 0 0 0 0 0 0 0 0 0 0 0 0 0 0 0 0 0 0 0 0 0 0 0 0 0 0 0 0 0 0 0 0 0 0 0 0 0 0 0
0 0 0 0 0 0 0 0 0 0 0 0 0 0 0 0 0 0 0 0 0 0 0 0 0 0 0 0 0 0 0 0 0 0 0 0 0 0 0 0 0 0 0
0 0 0 0 0 0 0 0 0 0 0 0 0 0 0 0 0 0 0 0 0 0 0 0 0 0 0 0 0 0 0 0 0 0 0 0 0 0 0 0 0 0 0
0 0 0 0 0 0 0 0 0 0 0 0 0 0 0 0 0 0 0 0 0 0 0 0 0 0 0 0 0 0 0 0 0 0 0 0 0 0 0 0 0 0 0
0 0 0 0 0 0 0 0 0 0 0 0 0 0 0 0 0 0 0 0 0 0 0 0 0 0 0 0 0 0 0 0 0 0 0 0 0 0 0 0 0 0 0
0 0 0 0 0 0 0 0 0 0 0 0 0 0 0 0 0 0 0 0 0 0 0 0 0 0 0 0 0 0 0 0 0 0 0 0 0 0 0 0 0 0 0
0 0 0 0 0 0 0 0 0 0 0 0 0 0 0 0 0 0 0 0 0 0 0 0 0 0 0 0 0 0 0 0 0 0 0 0 0 0 0 0 0 0 0
0 0 0 0 0 0 0 0 0 0 0 0 0 0 0 0 0 0 0 0 0 0 0 0 0 0 0 0 0 0 0 0 0 0 0 0 0 0 0 0 0 0 0
0 0 0 0 0 0 0 0 0 0 0 0 0 0 0 0 0 0 0 0 0 0 0 0 0 0 0 0 0 0 0 0 0 0 0 0 0 0 0 0 0 0 0
0 0 0 0 0 0 0 0 0 0 0 0 0 0 0 0 0 0 0 0 0 0 0 0 0 0 0 0 0 0 0 0 0 0 0 0 0 0 0 0 0 0 0
0 0 0 0 0 0 0 0 0 0 0 0 0 0 0 0 0 0 0 0 0 0 0 0 0 0 0 0 0 0 0 0 0 0 0 0 0 0 0 0 0 0 0
0 0 0 0 0 0 0 0 0 0 0 0 0 0 0 0 0 0 0 0 0 0 0 0 0 0 0 0 0 0 0 0 0 0 0 0 0 0 0 0 0 0 0
0 0 0 0 0 0 0 0 0 0 0 0 0 0 0 0 0 0 0 0 0 0 0 0 0 0 0 0 0 0 0 0 0 0 0 0 0 0 0 0 0 0 0
0 0 0 0 0 0 0 0 0 0 0 0 0 0 0 0 0 0 0 0 0 0 0 0 0 0 0 0 0 0 0 0 0 0 0 0 0 0 0 0 0 0 0
Wind_Speed
10 14 20 19 18 16 14 13 12 12 11 11 11 11 11 11 12 12 12 12 12 12 13 14 14 14 15 15 15 15 16 16 16 17 17 17 17 17 17 17 15 11 17
13 16 21 20 19 17 15 14 13 12 11 11 11 11 11 11 11 11 12 12 12 12 13 13 13 13 14 14 14 14 14 13 13 14 15 14 15 16 16 16 15 11 16
16 17 19 20 19 17 16 14 13 12 11 11 11 11 10 10 10 11 11 11 11 11 12 12 12 13 13 13 13 13 12 12 12 13 13 7 9 15 15 15 15 15 15
15 16 16 20 19 18 16 15 14 13 12 11 11 10 10 10 10 10 10 10 10 10 11 11 11 11 11 12 12 11 11 10 11 12 7 7 7 12 14 14 14 14 14
13 15 16 22 20 18 17 16 14 13 12 11 11 10 10 9 9 9 9 9 9 9 9 10 10 10 10 10 10 10 9 9 10 9 6 6 5 10 12 12 12 12 12
12 13 16 22 20 18 17 16 15 14 12 12 11 10 10 9 9 8 8 8 8 8 8 8 8 9 9 9 9 8 8 8 8 5 6 6 5 9 10 10 10 11 11
11 12 17 21 20 19 17 16 15 14 12 12 11 10 9 9 9 8 7 7 6 7 7 7 7 7 7 7 8 7 7 8 5 4 4 5 5 8 8 9 9 9 9
10 12 16 20 19 18 17 17 15 14 13 12 11 10 9 9 9 8 7 6 5 5 5 5 5 5 5 5 6 5 6 7 6 4 4 4 5 6 7 7 7 7 7
10 11 14 13 14 17 17 16 16 15 13 12 11 10 9 9 8 8 7 6 5 4 4 3 3 3 3 3 3 3 4 6 4 2 2 3 3 4 5 5 5 5 5
8 9 13 11 11 10 10 14 15 14 13 12 12 10 9 9 8 8 7 7 5 4 3 2 2 1 0 1 1 1 3 6 4 2 0 2 1 3 4 3 4 4 4
6 7 12 12 11 10 9 11 12 13 12 11 9 11 9 5 5 6 8 9 7 5 4 4 4 3 4 4 5 5 4 3 4 1 0 2 2 5 6 5 5 6 5
7 7 9 12 11 10 8 8 7 7 7 7 6 7 5 4 4 5 9 10 8 7 6 6 6 6 5 4 6 7 3 5 4 3 4 8 7 8 9 9 9 8 8
9 8 7 10 11 9 6 6 5 4 5 6 6 7 5 4 3 4 3 4 5 6 4 6 5 4 5 4 3 4 5 3 2 2 4 9 10 11 12 12 12 12 12
9 9 7 8 10 10 7 5 5 4 4 4 5 6 5 3 3 3 3 4 4 3 4 3 3 5 5 5 5 5 5 3 3 3 4 11 13 14 15 15 15 15 15
8 9 8 8 9 9 7 5 5 5 5 5 4 5 5 4 4 3 3 3 4 3 4 4 4 5 5 5 5 5 5 5 5 5 4 12 15 16 17 18 18 18 18
7 8 8 7 8 8 6 5 5 5 5 5 5 5 6 4 4 4 4 3 3 3 3 4 4 5 4 4 5 5 6 6 6 6 6 8 16 18 19 20 21 21 21
6 8 7 7 7 8 7 6 4 4 4 4 4 5 6 5 4 4 3 3 4 4 4 3 4 3 3 4 5 6 5 6 7 7 7 6 7 15 21 22 23 23 23
5 7 7 5 6 7 6 5 4 4 4 4 3 4 5 5 5 4 4 4 4 3 3 3 3 3 4 4 4 5 5 5 8 8 7 7 6 7 13 22 24 24 25
6 7 7 6 5 6 5 4 3 3 3 2 2 2 3 4 4 4 3 3 4 3 3 4 3 3 4 5 5 5 5 6 7 7 8 9 9 8 8 15 23 25 25
7 8 7 6 4 5 4 4 3 2 2 2 1 2 3 3 3 3 3 4 3 3 3 3 4 4 4 5 6 7 6 7 7 8 10 9 9 10 9 10 10 14 24
7 7 7 6 4 4 3 3 3 2 2 1 1 2 2 3 3 3 3 3 3 4 4 5 4 5 4 3 4 6 6 9 11 11 10 10 10 10 9 9 8 7 9
6 7 7 6 5 5 4 3 2 2 1 1 1 2 3 3 3 3 4 3 4 4 5 5 5 4 4 3 3 3 5 5 6 9 8 8 9 8 8 9 8 9 8
6 6 6 6 6 6 5 4 3 2 1 0 1 1 3 3 3 3 4 4 4 4 4 5 5 6 5 4 4 4 4 5 5 4 5 5 5 5 6 6 8 9 9
6 6 7 7 6 5 5 4 3 2 1 1 1 1 2 3 3 3 3 4 4 4 5 5 5 5 5 5 4 5 7 5 5 6 4 4 5 6 7 7 7 8 9
5 5 6 6 6 5 4 4 2 1 1 1 1 1 1 1 2 2 3 3 4 4 5 5 5 5 5 6 5 5 6 6 7 8 10 6 6 6 8 8 7 7 9
5 5 5 6 5 4 4 3 3 3 2 2 2 2 2 1 1 2 2 3 4 4 5 5 5 6 6 7 6 6 6 6 6 7 10 9 8 6 7 6 6 6 7
Wind_Direction
138 152 162 156 153 151 147 142 135 127 119 113 109 105 97 92 88 87 82 77 72 69 67 66 65 63 62 62 63 62 62 63 61 62 61 60 60 60 57 56 55 48 52
142 152 162 158 156 154 152 147 140 133 127 121 114 108 102 96 90 88 82 78 73 70 67 66 66 65 64 63 63 63 63 62 61 61 62 56 58 60 58 57 57 56 55
141 151 162 160 159 157 154 150 146 140 136 130 121 115 110 103 94 88 83 78 74 70 67 66 67 65 64 63 63 62 60 57 54 57 59 47 49 58 58 57 56 55 55
144 150 163 162 161 160 157 153 151 147 144 138 129 123 117 110 101 94 87 82 77 72 69 68 67 66 65 63 62 61 57 51 45 54 49 43 42 56 56 55 55 55 54
145 151 163 163 164 163 161 157 156 153 150 145 138 133 126 118 110 101 93 86 80 75 72 69 67 67 65 64 61 58 49 36 31 48 46 45 36 54 56 54 53 53 52
146 151 159 164 166 166 164 161 160 158 155 151 146 141 135 127 119 108 101 95 88 81 75 71 68 66 64 62 60 54 36 22 21 47 49 43 26 48 54 52 52 51 50
150 150 157 167 168 168 167 165 164 162 160 157 153 149 144 136 129 121 115 106 98 91 81 73 69 66 63 60 57 47 25 8 16 44 58 54 29 42 49 46 43 44 44
148 147 155 169 170 171 171 169 167 167 166 164 160 157 154 147 143 138 132 124 115 104 94 81 73 66 61 56 52 41 16 356 354 14 64 68 36 32 38 38 34 33 36
145 144 151 167 171 173 174 173 172 171 171 170 168 166 162 158 157 155 150 145 141 130 116 102 86 72 61 53 43 27 354 331 326 334 41 72 36 12 16 17 14 15 17
144 148 151 166 169 171 174 175 174 174 175 176 174 169 166 166 169 169 165 168 166 162 160 160 158 158 266 275 284 299 299 305 289 270 132 123 56 328 325 330 331 331 333
153 157 155 165 169 170 172 176 174 174 177 177 174 167 163 168 174 177 181 177 183 190 199 210 221 233 245 245 239 240 264 261 267 251 156 183 236 275 281 284 287 290 290
173 174 163 164 167 170 173 168 172 173 172 174 169 166 170 179 179 172 172 177 191 206 221 230 234 243 247 236 226 227 240 244 250 235 222 225 240 257 265 270 270 270 272
172 175 172 164 162 164 164 161 167 166 166 179 178 171 174 176 162 146 151 172 193 207 222 232 228 225 227 222 186 201 228 243 244 252 234 233 244 254 259 262 265 264 263
161 169 174 161 157 161 162 160 160 160 165 171 175 172 168 169 167 165 174 179 189 194 207 211 209 228 228 226 213 220 234 230 228 233 242 243 248 255 258 260 260 261 261
154 159 170 162 156 157 158 159 161 162 166 169 168 174 172 169 176 180 188 194 200 197 196 207 222 240 242 238 233 231 238 240 238 232 237 245 249 253 258 259 259 259 259
149 154 162 164 156 154 158 161 164 164 164 168 169 178 182 183 184 188 196 204 210 212 211 209 222 236 241 237 240 239 239 240 241 240 231 243 247 250 255 258 259 259 258
138 144 151 160 157 155 161 165 163 161 160 166 168 180 187 193 193 193 202 211 214 217 223 227 240 248 253 253 252 251 250 246 244 243 240 232 239 248 252 256 258 259 258
112 124 131 141 154 154 156 155 149 159 160 161 166 179 195 201 200 200 205 217 222 223 222 225 233 250 256 254 253 252 250 249 247 244 242 239 232 236 248 253 256 258 258
109 114 121 131 150 145 142 137 139 142 143 145 159 179 203 211 210 209 214 223 228 232 230 230 231 233 252 260 262 260 254 252 252 251 247 241 236 233 231 248 255 258 260
100 109 116 119 129 128 127 126 122 114 111 114 148 196 214 220 222 222 223 232 239 245 244 237 240 241 244 253 268 271 264 260 257 255 253 249 242 238 234 237 246 256 259
91 103 113 121 122 113 114 123 126 130 127 137 202 232 233 233 235 230 230 235 236 241 243 242 245 253 257 257 277 284 270 254 251 251 248 246 243 240 235 234 233 234 251
95 101 108 113 113 107 106 107 108 114 132 161 192 222 238 243 241 234 231 235 238 245 254 253 249 253 258 241 242 291 303 299 258 248 245 240 239 234 234 236 235 234 234
84 91 100 101 101 100 105 100 91 87 66 165 216 227 234 238 240 235 237 239 242 239 246 249 243 242 252 249 215 218 258 271 308 296 281 264 251 243 241 241 240 237 235
89 89 95 98 99 103 111 115 133 145 166 200 194 209 230 227 226 227 236 243 247 245 249 250 244 238 240 250 247 230 231 236 272 294 283 285 290 274 264 256 249 243 237
105 102 103 103 103 105 105 111 109 93 85 47 27 347 309 286 243 233 239 250 256 254 254 256 258 250 239 240 240 242 250 252 245 260 277 271 266 258 259 255 250 246 241
113 110 112 110 108 104 99 100 91 76 41 18 354 343 320 303 283 263 248 251 259 260 259 257 255 254 250 249 247 241 240 242 244 250 267 270 268 260 259 260 261 257 251